Aeroporto :
LOGIN :

Iscrizione | Disclaimer

   EN    FR    IT 

 










Sommario :    VFR   VFR Marginale   IFR   IFR Intensivo   IFR Molto Intensivo
Visibilità : 
Base nubi : 
>= 8 km
>= 3000ft
5 / 8 km
1000 / 3000 ft
1500m / 5 km
500 / 1000 ft
800 / 1500m
200 / 500 ft
< 800m
< 200 ft
Simboli :   Temporali  Nebbia  Neve Forte  Precipitazioni Forti  Vento > 20 kt
SIGMETs :   Varie  Temporali  Ghiacco  Turbolenza  Onda orograficha  Ceneri Vulcaniche






- Altitudine del aeroporto : 1325 ft
- Codice IATA : EBU


LFMH - St-Etienne Boutheon

ULTIMO METAR :
  • 012330Z AUTO 34007KT 310V010 9999 BKN007 OVC013 04/04 Q1015

METARs OBSOLETI :
  • 012300Z AUTO 35007KT 320V020 9000 OVC006 04/04 Q1015
  • 012230Z AUTO 36007KT 4100 -RA BR OVC004 04/04 Q1015
  • 012200Z AUTO 34003KT 310V020 4900 -RA BR OVC003 04/03 Q1015
  • 012130Z AUTO VRB02KT 6000 -RA OVC004 03/03 Q1015
  • 012100Z AUTO VRB02KT 8000 -RA OVC004 03/03 Q1015

TAF TAF LFMH
Valido dal 01 a 18 ore il 02 a 18 ore UTC


011700Z 0118/0218 35010KT 3000 BR OVC004
TEMPO 0118/0121 8000 NSW BKN012
TEMPO 0118/0218 1000 DZ OVC002
PROB40
TEMPO 0212/0216 6000 NSW BKN007
ATIS : +33 4 77 36 17 51



MetMap, La meteo Aeronautica in un colpo d'occhio ! - Copyright ORBIFLY Dicembre 2007 - Disclaimer

ORBIFLY MET'MAP TEAM :

Programmazione e sviluppo : Alexandra Zaïnal
Concezione : Baudouin d'Aumeries
Aiuto per la programmazione : Marc-Olivier Méhu
Supporto tecnico e logistico : Manuel Goepfert
Aiuto per la traduzione : Arnaldo La Scala

Contatto : metmap@orbifly.com




FONTI E CREDITI :

   NOAA